Location: Casteau
(50.5142°N, 4.0161°E)
Time: 02:17:09
(UTC+00:00)

Transit 2A - Pass Details

Date: 05 August 2021
Orbit: 594 x 964 km, 66.7° (Epoch: 27 September)

Event Time Altitude Azimuth Distance (km) Brightness Sun altitude
Rises 04:39:23 0° 191° (S) 2,838 8.6 2.3°
Reaches altitude 10° 04:41:41 10° 182° (S) 1,961 7.9 2.6°
Maximum altitude 04:45:43 36° 116° (ESE) 1,003 7.2 3.2°
Drops below altitude 10° 04:50:02 10° 50° (NE) 2,113 10.0 3.9°
Sets 04:52:36 0° 42° (NE) 3,092 10.5 4.2°
